Wind_Speed
51 53 57 57 55 55 51 52 55 51 53 53 52 53 56 58 55 48 42 40 41 41 41 43 42 41 33 32 33 29 30 29 31 34 39 36 40 42 42 41 43 45 45 45 46
54 57 54 53 51 50 48 43 42 42 46 51 54 54 51 51 46 39 41 43 45 43 43 43 41 39 36 33 34 35 31 29 28 30 34 33 37 38 40 39 42 43 42 40 40
60 57 58 55 54 56 54 51 46 44 47 49 47 47 47 44 46 39 43 44 47 47 45 42 42 42 38 34 34 37 34 31 29 28 29 30 30 32 34 37 39 38 36 40 43
57 55 55 52 52 51 53 54 54 51 49 48 50 50 46 44 47 41 45 47 48 46 46 43 41 40 37 35 34 37 39 34 34 31 32 30 29 30 30 36 35 37 36 38 41
56 57 54 47 47 53 51 51 49 50 52 53 52 52 48 46 45 42 46 47 47 48 46 45 43 40 39 39 39 36 38 39 39 36 33 32 33 27 31 39 35 36 34 34 37
54 56 53 50 49 50 51 46 44 46 48 47 55 53 52 55 51 47 45 47 49 50 48 47 47 42 42 44 42 42 42 41 40 42 39 31 34 33 41 34 35 38 36 36 39
52 58 58 56 51 49 51 53 46 47 50 46 51 55 55 56 54 54 54 48 47 51 50 48 47 47 46 51 47 45 46 47 49 46 42 37 36 38 40 39 42 44 42 42 42
63 54 58 57 55 55 53 55 53 50 50 48 41 43 49 51 51 53 56 55 48 50 53 51 48 49 51 54 53 51 49 52 55 49 46 45 41 45 41 40 45 47 46 45 46
68 63 53 54 61 62 53 57 59 58 59 49 46 42 45 47 46 48 56 56 52 51 52 55 53 52 52 55 54 53 53 52 54 54 55 50 45 49 49 45 43 49 52 53 55
67 76 63 73 59 62 69 50 61 57 62 64 62 63 49 52 54 50 55 58 58 56 57 57 52 51 55 60 56 56 55 55 57 60 57 53 49 51 56 53 51 50 51 55 60
71 74 76 70 72 69 69 70 75 60 63 69 69 73 80 63 63 68 50 56 60 59 59 60 55 53 54 60 61 59 57 58 59 63 59 58 53 55 55 57 59 61 60 61 61
82 74 88 72 78 76 74 77 77 80 69 70 78 68 81 79 75 77 72 68 58 65 62 64 61 64 62 62 63 64 63 62 63 66 67 64 56 58 60 60 61 65 67 68 67
78 84 84 88 79 80 78 82 78 84 87 77 80 83 84 83 78 85 81 75 78 77 69 66 60 63 68 65 63 63 65 67 70 70 68 68 59 62 62 64 65 65 68 71 70
82 92 84 94 89 88 83 80 86 88 95 91 87 84 89 91 90 84 89 84 83 82 83 69 73 73 74 75 72 72 75 74 68 71 72 73 66 64 64 68 70 72 74 74 75
102 99 102 100 103 95 91 98 94 90 98 99 95 94 93 97 98 91 88 91 89 92 87 85 74 78 77 84 89 75 85 85 84 84 71 67 70 57 70 70 73 77 78 78 78
113 114 115 114 105 109 111 113 111 106 106 108 105 102 101 97 99 100 94 92 102 105 98 92 88 79 82 85 94 94 91 92 92 91 91 75 78 58 68 67 76 79 79 82 82
123 122 120 120 116 119 110 106 108 105 105 105 104 102 103 99 101 100 104 99 101 107 109 100 101 91 91 94 95 99 102 101 97 98 91 92 91 81 78 79 78 80 85 89 88
123 122 122 121 120 112 112 109 108 106 106 112 108 107 107 107 105 103 103 106 105 105 106 110 104 98 99 103 105 109 108 111 110 106 102 101 99 94 94 89 89 89 93 91 85
121 126 129 122 120 119 118 117 114 113 116 116 116 117 112 116 117 119 118 116 114 119 113 114 111 113 114 117 123 117 107 115 116 114 116 110 109 107 103 101 99 98 98 99 103
128 126 133 131 126 126 126 124 126 128 128 127 126 125 126 128 132 131 130 130 132 131 129 127 125 130 132 132 131 124 119 118 123 119 122 118 120 118 111 111 111 107 105 108 109
130 128 136 137 133 139 133 132 132 132 134 138 137 135 137 139 136 143 140 133 132 137 141 141 140 138 134 127 123 125 128 126 129 131 127 128 126 123 122 120 118 116 113 114 117
136 137 137 138 143 150 147 137 141 143 144 143 149 147 143 144 147 149 148 147 147 149 153 145 144 135 134 135 134 134 132 123 132 134 131 135 140 137 134 135 132 130 127 127 126
138 140 141 147 151 157 151 150 143 147 155 156 155 150 145 144 145 138 134 130 130 133 135 131 132 125 117 116 117 115 127 133 122 126 125 135 138 141 133 131 131 138 135 134 133
141 145 150 149 151 156 161 158 159 155 152 149 145 142 141 128 124 119 118 115 116 116 117 115 115 113 109 105 107 110 110 113 113 113 114 112 116 112 121 122 124 118 122 121 122
150 150 153 155 147 149 156 154 152 148 138 127 127 124 116 110 110 109 110 106 104 103 101 106 101 98 99 94 97 96 97 101 104 101 107 99 104 96 105 105 104 107 113 113 114
150 150 152 153 152 149 142 143 138 132 124 123 112 108 104 103 105 98 96 96 90 90 89 91 86 91 90 89 92 93 92 89 90 95 96 91 88 88 92 90 91 93 93 94 98
147 144 142 140 136 135 131 124 117 110 106 102 98 94 92 94 90 84 83 83 78 79 75 78 81 84 76 82 84 82 79 83 84 85 85 85 85 85 88 88 87 86 86 85 83
Wind_Direction
275 278 278 280 280 280 282 282 282 282 280 272 271 272 274 277 277 276 275 278 279 280 284 284 288 294 299 290 296 298 292 290 282 273 271 265 259 260 258 259 256 259 259 257 262
278 284 283 284 283 281 274 277 281 275 268 269 271 272 275 276 276 272 277 278 275 278 278 278 280 290 291 291 290 293 292 293 289 282 277 265 264 258 257 258 257 258 261 263 266
276 279 281 283 283 279 277 270 268 270 270 267 272 273 278 282 282 280 276 271 275 275 273 274 279 283 288 286 280 288 292 290 286 287 283 276 268 264 259 257 257 259 264 267 269
276 280 278 279 280 273 272 270 272 270 272 274 277 278 281 278 276 279 274 276 271 269 272 272 273 277 279 279 279 285 286 287 283 281 288 290 285 272 265 261 262 265 265 265 263
274 276 276 284 279 272 270 273 275 280 278 279 279 281 280 275 276 272 274 276 271 271 269 271 270 272 271 271 276 274 278 284 288 281 284 288 284 285 259 259 263 265 264 261 262
284 277 279 274 281 276 270 272 279 277 275 281 283 281 279 278 278 278 270 270 276 271 268 269 273 269 268 272 271 270 269 271 276 280 278 277 276 276 259 268 267 269 261 259 260
289 280 278 275 272 273 267 271 269 273 276 282 282 284 280 278 278 279 273 272 265 270 268 266 268 267 264 266 269 267 269 268 269 270 275 276 272 266 268 266 264 262 260 257 257
273 291 276 275 269 271 271 267 271 268 276 281 285 280 278 281 279 278 276 277 267 268 267 270 266 266 265 267 268 269 268 269 268 270 271 269 264 266 264 260 259 259 252 251 253
269 278 279 278 273 273 271 269 269 269 276 275 279 289 280 286 285 282 279 273 272 269 267 270 269 270 269 267 266 266 267 268 270 266 264 264 264 262 262 260 257 253 254 257 259
272 266 282 275 281 278 267 281 270 269 275 276 282 294 295 270 288 306 274 273 275 272 270 270 270 277 269 263 264 265 267 265 266 267 266 262 260 259 262 262 259 255 255 258 260
270 271 275 275 273 283 270 274 270 279 286 268 279 277 289 303 294 294 287 283 275 278 275 270 275 274 269 270 269 266 266 267 267 268 266 268 264 261 260 261 261 261 261 258 258
267 276 267 274 270 282 271 276 276 273 282 288 273 276 281 294 299 286 289 293 291 282 281 273 276 274 271 271 272 272 269 266 266 267 269 266 266 263 262 261 260 260 261 259 261
274 270 267 271 268 280 272 275 277 275 280 286 278 280 287 280 292 275 281 285 289 292 282 271 272 272 271 274 275 276 272 270 265 267 268 268 265 262 263 263 264 263 261 262 261
273 268 272 269 277 281 269 272 280 276 283 289 286 282 278 282 285 284 279 276 280 288 284 284 273 272 269 270 278 284 279 275 277 271 267 270 269 262 265 266 265 265 263 261 261
277 276 276 278 281 280 275 273 279 267 278 285 283 283 281 277 280 282 278 273 273 277 286 281 279 273 270 267 271 275 280 274 277 284 272 267 268 257 260 266 267 267 267 266 264
278 277 278 279 277 280 281 281 279 277 281 282 281 279 278 277 274 275 276 273 270 276 279 280 284 273 267 272 270 271 276 272 271 274 279 277 264 253 259 259 262 267 269 270 268
279 281 281 281 280 284 283 281 280 279 282 280 277 276 276 278 276 275 272 276 269 272 275 274 276 278 269 270 272 270 272 272 270 270 271 270 268 268 263 265 257 260 268 268 268
278 281 279 278 284 285 280 282 281 278 278 280 279 278 271 277 278 279 274 276 273 274 272 271 271 271 270 270 266 269 269 269 270 267 269 266 267 267 265 262 263 262 265 270 266
274 275 276 276 281 283 281 280 281 280 278 277 278 277 276 276 277 279 278 275 274 274 272 270 266 265 267 269 271 266 265 264 268 266 266 266 267 265 263 262 263 263 263 263 268
270 276 272 273 278 278 281 281 280 279 279 279 278 277 278 278 278 277 277 275 275 274 273 270 265 263 264 269 270 268 265 261 267 266 266 266 265 268 264 260 260 265 261 263 263
268 272 272 269 271 277 282 278 278 277 277 277 278 277 277 277 277 279 278 276 276 277 277 276 273 273 274 272 270 266 267 265 262 265 264 262 263 265 265 263 263 264 263 261 264
268 270 269 267 269 276 278 278 276 276 278 279 278 279 276 275 274 274 274 275 273 274 273 274 273 272 271 270 271 269 271 271 273 273 267 262 264 265 263 264 265 263 262 264 264
266 268 269 269 270 274 277 278 277 276 277 279 279 279 278 279 281 282 280 278 274 275 274 274 273 271 270 269 269 269 267 267 265 264 265 266 263 266 266 266 267 265 265 265 263
267 267 268 272 271 272 276 278 278 277 278 276 279 281 283 280 280 280 277 273 271 271 270 270 270 271 272 271 269 266 266 265 265 266 266 265 265 266 266 266 268 267 266 266 265
269 268 266 274 276 275 275 277 278 280 284 281 282 284 280 279 279 277 273 270 270 269 269 269 269 270 269 269 268 269 268 267 266 266 266 266 266 267 265 265 265 265 267 267 268
270 271 271 273 276 276 279 278 280 281 282 282 280 279 278 277 274 271 272 272 272 270 269 270 269 265 266 266 265 265 267 269 268 268 268 267 269 269 266 266 265 265 266 267 270
271 273 275 274 277 277 279 279 279 280 281 280 279 278 276 272 274 277 274 273 273 273 270 268 269 268 266 265 264 264 267 265 265 266 267 267 267 266 266 267 266 266 266 267 269
Height
10759 10758 10758 10759 10760 10759 10758 10758 10759 10759 10757 10757 10755 10755 10753 10752 10755 10756 10752 10753 10754 10752 10753 10752 10750 10750 10749 10748 10746 10744 10740 10739 10739 10739 10739 10745 10744 10747 10747 10746 10745 10746 10746 10746 10747
10749 10748 10748 10747 10748 10750 10750 10749 10747 10747 10747 10747 10745 10745 10743 10741 10744 10747 10745 10744 10743 10744 10743 10743 10742 10742 10741 10741 10739 10737 10735 10734 10732 10732 10730 10734 10735 10738 10738 10738 10736 10736 10737 10738 10740
10738 10739 10739 10738 10738 10739 10740 10740 10740 10739 10737 10735 10735 10734 10733 10732 10732 10740 10737 10735 10733 10734 10734 10734 10734 10734 10733 10733 10732 10729 10729 10728 10726 10726 10724 10726 10727 10729 10730 10729 10729 10730 10730 10731 10730
10727 10727 10728 10728 10727 10728 10729 10730 10730 10728 10727 10725 10724 10723 10723 10722 10723 10731 10725 10727 10725 10724 10724 10725 10725 10726 10725 10726 10725 10722 10720 10720 10719 10720 10719 10719 10720 10722 10723 10719 10723 10724 10724 10723 10721
10716 10716 10717 10716 10717 10717 10718 10718 10719 10720 10718 10718 10716 10715 10714 10710 10716 10720 10716 10715 10715 10716 10715 10715 10715 10717 10716 10716 10718 10715 10713 10712 10711 10713 10713 10712 10711 10716 10714 10710 10717 10717 10715 10714 10713
10701 10703 10704 10704 10705 10706 10709 10709 10710 10710 10709 10709 10708 10707 10705 10699 10706 10707 10708 10705 10704 10705 10706 10706 10706 10706 10707 10706 10708 10708 10707 10704 10703 10703 10705 10708 10703 10705 10699 10709 10710 10710 10707 10707 10706
10689 10690 10690 10691 10692 10694 10696 10698 10700 10701 10701 10701 10700 10698 10694 10691 10694 10694 10695 10693 10695 10694 10694 10696 10697 10696 10695 10694 10696 10698 10697 10696 10694 10694 10696 10700 10697 10694 10695 10698 10699 10700 10700 10699 10697
10676 10678 10679 10681 10681 10682 10683 10686 10689 10690 10692 10693 10692 10690 10685 10683 10683 10683 10682 10682 10681 10684 10683 10684 10687 10687 10685 10683 10684 10687 10687 10681 10681 10686 10688 10689 10689 10684 10686 10689 10689 10689 10688 10688 10687
10661 10662 10667 10669 10671 10670 10671 10674 10678 10679 10680 10681 10682 10680 10676 10672 10672 10670 10670 10668 10669 10670 10671 10672 10675 10677 10675 10670 10672 10672 10675 10675 10670 10672 10676 10680 10683 10674 10676 10678 10678 10678 10676 10675 10674
10647 10649 10652 10654 10655 10657 10657 10659 10665 10667 10668 10666 10667 10663 10664 10661 10660 10658 10656 10654 10656 10658 10659 10658 10660 10664 10663 10654 10660 10659 10662 10662 10659 10654 10660 10669 10675 10668 10662 10668 10666 10664 10663 10663 10662
10627 10629 10630 10633 10633 10636 10639 10642 10646 10652 10653 10652 10651 10653 10641 10646 10647 10640 10644 10645 10643 10643 10644 10645 10647 10648 10641 10643 10647 10647 10649 10650 10646 10639 10646 10651 10660 10659 10653 10652 10652 10651 10651 10649 10648
10611 10612 10611 10613 10614 10616 10618 10618 10623 10630 10636 10629 10631 10638 10628 10628 10633 10614 10623 10627 10628 10631 10628 10632 10636 10626 10627 10628 10629 10631 10632 10635 10634 10627 10630 10638 10649 10643 10640 10638 10638 10636 10633 10634 10632
10590 10590 10590 10592 10593 10596 10598 10600 10599 10608 10610 10616 10610 10613 10614 10611 10614 10601 10604 10608 10608 10610 10608 10613 10619 10614 10610 10612 10611 10613 10615 10615 10615 10612 10617 10620 10637 10628 10627 10623 10618 10619 10619 10618 10618
10566 10567 10566 10570 10570 10571 10577 10578 10580 10585 10584 10594 10596 10590 10589 10587 10587 10587 10579 10585 10588 10590 10585 10597 10596 10594 10593 10593 10588 10595 10589 10591 10595 10596 10602 10599 10613 10617 10613 10606 10602 10597 10597 10602 10605
10541 10542 10542 10544 10545 10546 10553 10553 10561 10557 10560 10568 10571 10569 10567 10567 10565 10566 10563 10561 10564 10565 10569 10574 10576 10572 10572 10574 10564 10573 10568 10567 10566 10568 10577 10590 10583 10611 10596 10590 10588 10581 10580 10582 10586
10517 10519 10517 10516 10521 10525 10529 10530 10532 10533 10543 10535 10539 10544 10543 10542 10542 10542 10543 10543 10539 10540 10544 10548 10549 10553 10550 10547 10544 10542 10543 10543 10542 10542 10552 10565 10555 10588 10575 10579 10573 10565 10564 10561 10562
10478 10484 10482 10486 10489 10491 10495 10501 10504 10510 10512 10500 10507 10512 10513 10514 10516 10519 10519 10522 10520 10519 10522 10525 10527 10529 10526 10523 10518 10517 10518 10513 10514 10515 10529 10530 10524 10554 10553 10556 10552 10549 10544 10541 10539
10450 10451 10452 10455 10458 10460 10463 10470 10478 10484 10481 10469 10473 10477 10484 10485 10487 10487 10490 10490 10492 10492 10499 10495 10505 10499 10498 10496 10494 10491 10487 10487 10483 10490 10494 10499 10501 10515 10518 10523 10526 10524 10525 10524 10518
10432 10428 10422 10427 10429 10427 10429 10439 10448 10447 10446 10444 10444 10443 10454 10452 10455 10457 10455 10457 10460 10459 10465 10465 10473 10464 10462 10462 10463 10462 10464 10461 10450 10462 10455 10470 10471 10475 10487 10493 10494 10497 10499 10497 10497
10409 10409 10405 10406 10406 10405 10408 10412 10415 10413 10411 10410 10412 10413 10421 10420 10415 10418 10421 10421 10420 10421 10419 10419 10426 10430 10426 10432 10427 10429 10429 10430 10426 10425 10423 10433 10433 10436 10452 10453 10456 10466 10471 10469 10468
10388 10388 10381 10378 10379 10380 10383 10385 10384 10381 10377 10377 10380 10378 10382 10384 10384 10380 10378 10381 10380 10371 10369 10375 10374 10383 10389 10387 10390 10390 10391 10396 10392 10390 10390 10392 10394 10407 10410 10414 10423 10428 10433 10436 10438
10364 10362 10359 10349 10350 10352 10352 10351 10353 10353 10343 10339 10343 10344 10342 10338 10335 10332 10337 10344 10345 10329 10323 10331 10332 10340 10347 10353 10355 10350 10347 10350 10350 10352 10356 10356 10354 10366 10371 10376 10386 10389 10394 10397 10405
10336 10333 10330 10325 10322 10320 10317 10317 10313 10319 10310 10301 10302 10303 10301 10300 10282 10291 10292 10302 10292 10288 10281 10289 10277 10288 10310 10316 10314 10311 10312 10315 10311 10315 10316 10316 10321 10328 10331 10337 10344 10348 10352 10354 10362
10303 10304 10301 10294 10293 10290 10285 10284 10277 10275 10273 10268 10266 10267 10263 10259 10247 10245 10247 10251 10248 10250 10244 10250 10250 10258 10268 10275 10273 10271 10278 10277 10274 10275 10281 10288 10290 10302 10295 10296 10304 10310 10306 10310 10320
10273 10273 10269 10263 10260 10254 10251 10247 10239 10236 10234 10232 10232 10228 10221 10216 10210 10205 10205 10211 10217 10218 10221 10211 10224 10230 10230 10241 10238 10237 10240 10242 10243 10255 10246 10265 10254 10276 10258 10266 10276 10274 10270 10274 10277
10239 10237 10235 10236 10231 10224 10215 10216 10210 10205 10203 10202 10197 10194 10187 10182 10169 10179 10180 10179 10188 10190 10191 10186 10199 10195 10203 10209 10207 10205 10211 10220 10223 10219 10218 10228 10235 10236 10230 10236 10243 10244 10245 10249 10248
10205 10206 10205 10202 10200 10193 10185 10181 10183 10179 10179 10169 10167 10163 10156 10143 10149 10162 10159 10158 10163 10161 10169 10169 10168 10167 10184 10177 10175 10182 10197 10191 10194 10196 10198 10200 10205 10206 10203 10208 10214 10219 10223 10228 10228